COSMOS 2251 DEB

Satellite information

Favourite Embed

Satellite Type and Status

DEBRISIN ORBIT

Key statistics

Satellite COSMOS 2251 DEB at a glance.

Uptime

11874

Days in orbit

Revolutions

≈ 14.7

Per day

Orbit

LEO

Low Earth Orbit

Inclination

74.0

Latest

Satellite identification and parameters

Extended collection of information and parameters for COSMOS 2251 DEB.

Object identification

Identified? True

Debris? True

Object name: COSMOS 2251 DEB

International designator: 1993-036BVV

Object number (NORAD): 40792

Object ID (CCSDS): 40792

Country: COMMONWEALTH OF INDEPENDENT STATES (CIS)

Current information (Y/N): Y

RCS size: SMALL

Orbital parameters

Period: 98.12 minutes

Inclination: 74.0462 deg

SMA: 7046.908 km

Apoapsis: 679.61 km

Periapsis: 657.937 km

RAAN: 45.2013 deg

Eccentricy: 0.00153774

Argument of periapsis: 149.8992 deg

Mean anomaly: 27.0176 deg

Mean motion: 14.67590278 rev/day

Mean motion (dot): 0.00006465 rev/day2

B* drag term: 0.0011407186 1/REarth

Two-line elements (TLE)

Creation date: Dec. 14, 2025, 11:30 a.m.

Reference frame: TEME

Reference center: EARTH

Epoch: Dec. 13, 2025, 9:48 p.m. UTC

TLE line 0: 0 COSMOS 2251 DEB

TLE line 1: 1 40792U 93036BVV 25347.90895389 .00006465 00000-0 11407-2 0 9991

TLE line 2: 2 40792 74.0462 45.2013 0015377 149.8992 27.0176 14.67590278632011

Live tracking on map

Real-time ground track for satellite COSMOS 2251 DEB.

In-orbit conjunctions

A list of the most updated potential collisions computed for object COSMOS 2251 DEB.

Target Orbit TCA Probability of collision Miss distance Type
DELTA 1 R/B SSO 2025-03-29 03:53:56 0.0002180538 477.0 (m) ROCKET BODY

Associated space launch

Military communications satellite. Destroyed in a collision with Iridium 33.

COSMOS 2251 DEB was lifted into orbit during the mission ‘Kosmos-3M | Strela-2M 51’, on board a Kosmos-3M space rocket.

The launch took place on June 16, 1993, 4:17 a.m. from 132/1 (132L).

For more information about the launch, click the button.

Launch to space Kosmos-3M | Strela-2M 51
Kosmos-3M | Strela-2M 51

Agency: N/A

Status: Launch Successful

Launch date: June 16, 1993, 4:17 a.m. UTC

Rocket: Kosmos-3M

Launch pad: 132/1 (132L)

Location: Plesetsk Cosmodrome, Russian Federation

...

Latest news about this satellite

There are no fresh news available about this satellite. Check back as we update our databases every day.


Newsletter sign-up

Weekly statistics, charts and insights to help you stay on top of the space industry.